THY6WR LTFM-LTFE

Flight info

Callsign THY6WR
Flight time 0h 55m
Altitude 32000
Route IVGUS1H/18 IVGUS UY227 RAUMA/N0452F310 UN618 AKBUK
Aircraft B38M/M-SDE1FGHILORVWXY/HB1

Departure

Time 2026-05-08 21:05
Airport İstanbul Airport (LTFM)

Arrival

Time 2026-05-08 22:00
Airport Milas Bodrum International Airport (LTFE)
Time Latitude Longitude Altitude Speed Heading
2026-05-08 20:16 41.26201 28.74831 316 ft 0 kts 251°
2026-05-08 20:21 41.26201 28.74827 316 ft 0 kts 251°
2026-05-08 20:55 41.26203 28.74835 316 ft 3 kts 253°
2026-05-08 20:55 41.26208 28.74862 314 ft 3 kts 261°
2026-05-08 20:55 41.26210 28.74890 314 ft 3 kts 271°
2026-05-08 20:55 41.26208 28.74917 313 ft 3 kts 282°
2026-05-08 20:56 41.26202 28.74943 314 ft 3 kts 295°
2026-05-08 20:56 41.26191 28.74967 315 ft 3 kts 311°
2026-05-08 20:56 41.26176 28.74985 314 ft 3 kts 331°
2026-05-08 20:56 41.26159 28.74993 314 ft 1 kts 350°
2026-05-08 20:58 41.26162 28.74993 315 ft 2 kts 349°
2026-05-08 20:58 41.26207 28.74989 315 ft 12 kts 15°
2026-05-08 20:59 41.26248 28.75089 316 ft 15 kts 97°
2026-05-08 20:59 41.26241 28.75240 316 ft 19 kts 89°
2026-05-08 20:59 41.26291 28.75402 316 ft 21 kts 21°
2026-05-08 20:59 41.26421 28.75381 315 ft 17 kts 353°
2026-05-08 21:00 41.26582 28.75376 314 ft 29 kts 359°
2026-05-08 21:00 41.26803 28.75373 312 ft 28 kts 360°
2026-05-08 21:00 41.27015 28.75371 311 ft 33 kts 359°
2026-05-08 21:00 41.27244 28.75367 305 ft 29 kts 359°
2026-05-08 21:01 41.27461 28.75365 301 ft 34 kts 359°
2026-05-08 21:01 41.27704 28.75361 291 ft 33 kts 359°
2026-05-08 21:01 41.27966 28.75357 272 ft 42 kts 359°
2026-05-08 21:01 41.28257 28.75353 260 ft 36 kts 359°
2026-05-08 21:02 41.28478 28.75348 253 ft 35 kts 359°
2026-05-08 21:02 41.28759 28.75355 240 ft 47 kts
2026-05-08 21:02 41.28950 28.75361 234 ft 0 kts
2026-05-08 21:03 41.28953 28.75362 234 ft 2 kts
2026-05-08 21:03 41.28963 28.75377 232 ft 3 kts 69°
2026-05-08 21:03 41.28975 28.75433 233 ft 10 kts 83°
2026-05-08 21:03 41.28978 28.75570 232 ft 20 kts 93°
2026-05-08 21:04 41.28932 28.75636 236 ft 5 kts 178°
2026-05-08 21:04 41.28893 28.75633 237 ft 11 kts 183°
2026-05-08 21:04 41.28587 28.75635 250 ft 81 kts 179°
2026-05-08 21:04 41.27774 28.75649 281 ft 150 kts 180°
2026-05-08 21:05 41.26566 28.75663 515 ft 187 kts 179°
2026-05-08 21:05 41.25232 28.75678 1416 ft 193 kts 178°
2026-05-08 21:05 41.23911 28.76130 2217 ft 209 kts 152°
2026-05-08 21:05 41.22807 28.77584 2869 ft 232 kts 129°
2026-05-08 21:06 41.21842 28.79352 3752 ft 246 kts 134°
2026-05-08 21:06 41.20535 28.80916 4456 ft 257 kts 153°
2026-05-08 21:06 41.19023 28.82045 5606 ft 253 kts 158°
2026-05-08 21:06 41.17345 28.82611 6594 ft 250 kts 185°
2026-05-08 21:07 41.15622 28.82310 7539 ft 253 kts 187°
2026-05-08 21:07 41.13833 28.82137 8424 ft 261 kts 186°
2026-05-08 21:07 41.12004 28.81985 9386 ft 266 kts 186°
2026-05-08 21:07 41.10140 28.81844 10268 ft 272 kts 186°
2026-05-08 21:08 41.08190 28.81706 10800 ft 291 kts 186°
2026-05-08 21:08 41.06095 28.81565 11235 ft 311 kts 185°
2026-05-08 21:08 41.03881 28.81421 11801 ft 325 kts 185°
2026-05-08 21:08 41.01592 28.81274 12514 ft 333 kts 185°
2026-05-08 21:09 40.99310 28.81081 13318 ft 337 kts 192°
2026-05-08 21:09 40.97074 28.80014 14074 ft 337 kts 214°
2026-05-08 21:09 40.95340 28.77943 14790 ft 339 kts 234°
2026-05-08 21:09 40.94035 28.75331 15565 ft 342 kts 237°
2026-05-08 21:10 40.92751 28.72663 16305 ft 346 kts 238°
2026-05-08 21:10 40.91468 28.69956 17054 ft 349 kts 239°
2026-05-08 21:10 40.90371 28.67073 17768 ft 353 kts 244°
2026-05-08 21:10 40.89301 28.64129 18431 ft 355 kts 243°
2026-05-08 21:11 40.88227 28.61217 18657 ft 359 kts 243°
2026-05-08 21:11 40.87126 28.58252 19140 ft 361 kts 243°
2026-05-08 21:11 40.86015 28.55269 19793 ft 362 kts 243°
2026-05-08 21:11 40.84895 28.52269 20388 ft 366 kts 243°
2026-05-08 21:12 40.83883 28.49179 20968 ft 370 kts 253°
2026-05-08 21:12 40.83498 28.45798 21591 ft 374 kts 261°
2026-05-08 21:12 40.83193 28.42408 21672 ft 372 kts 261°
2026-05-08 21:12 40.82902 28.39039 21530 ft 370 kts 262°
2026-05-08 21:13 40.82618 28.35644 21455 ft 377 kts 262°
2026-05-08 21:13 40.82334 28.32193 21913 ft 379 kts 262°
2026-05-08 21:13 40.82050 28.28725 22521 ft 382 kts 262°
2026-05-08 21:13 40.81763 28.25222 23081 ft 386 kts 262°
2026-05-08 21:14 40.81473 28.21683 23639 ft 389 kts 262°
2026-05-08 21:14 40.81180 28.18123 24147 ft 390 kts 262°
2026-05-08 21:14 40.80885 28.14564 24686 ft 391 kts 262°
2026-05-08 21:14 40.80587 28.10975 25130 ft 394 kts 262°
2026-05-08 21:15 40.80287 28.07369 25601 ft 396 kts 262°
2026-05-08 21:15 40.79984 28.03744 26022 ft 401 kts 262°
2026-05-08 21:15 40.79679 28.00113 26392 ft 405 kts 262°
2026-05-08 21:15 40.79368 27.96419 26855 ft 407 kts 262°
2026-05-08 21:16 40.79053 27.92692 27266 ft 410 kts 262°
2026-05-08 21:16 40.78735 27.88947 27682 ft 412 kts 262°
2026-05-08 21:16 40.78413 27.85174 28096 ft 415 kts 262°
2026-05-08 21:16 40.78087 27.81376 28503 ft 417 kts 262°
2026-05-08 21:17 40.77740 27.77569 28907 ft 419 kts 258°
2026-05-08 21:17 40.76858 27.73919 29280 ft 419 kts 242°
2026-05-08 21:17 40.75208 27.70758 29644 ft 421 kts 227°
2026-05-08 21:17 40.72953 27.68318 30137 ft 421 kts 213°
2026-05-08 21:18 40.70378 27.66444 30492 ft 424 kts 210°
2026-05-08 21:18 40.67772 27.64684 30730 ft 428 kts 208°
2026-05-08 21:18 40.65096 27.62947 31091 ft 429 kts 208°
2026-05-08 21:18 40.62425 27.61246 31509 ft 428 kts 208°
2026-05-08 21:19 40.59738 27.59557 31912 ft 428 kts 207°
2026-05-08 21:19 40.57025 27.57896 32057 ft 430 kts 205°
2026-05-08 21:19 40.54201 27.56649 32099 ft 428 kts 201°
2026-05-08 21:20 40.48584 27.54100 32083 ft 426 kts 202°
2026-05-08 21:20 40.42983 27.51504 32083 ft 427 kts 202°
2026-05-08 21:21 40.37394 27.48907 32089 ft 424 kts 204°
2026-05-08 21:21 40.31837 27.46331 32089 ft 426 kts 203°
2026-05-08 21:22 40.26257 27.43747 32093 ft 428 kts 203°
2026-05-08 21:22 40.20649 27.41155 32089 ft 426 kts 204°
2026-05-08 21:23 40.15076 27.38584 32100 ft 424 kts 204°
2026-05-08 21:23 40.09502 27.36017 32095 ft 425 kts 204°
2026-05-08 21:24 40.03932 27.33454 32083 ft 422 kts 205°
2026-05-08 21:24 39.98390 27.30980 32094 ft 424 kts 199°
2026-05-08 21:25 39.92503 27.29833 32085 ft 428 kts 194°
2026-05-08 21:25 39.86590 27.28727 32083 ft 429 kts 195°
2026-05-08 21:26 39.80694 27.27655 32107 ft 428 kts 194°
2026-05-08 21:26 39.74785 27.26658 32112 ft 428 kts 194°
2026-05-08 21:27 39.68893 27.25659 32113 ft 427 kts 195°
2026-05-08 21:27 39.63002 27.24660 32135 ft 428 kts 195°
2026-05-08 21:28 39.57104 27.23662 32121 ft 427 kts 195°
2026-05-08 21:28 39.51202 27.22664 32116 ft 427 kts 195°
2026-05-08 21:29 39.45331 27.21582 32151 ft 426 kts 196°
2026-05-08 21:29 39.39482 27.20507 32132 ft 427 kts 196°
2026-05-08 21:30 39.33608 27.19429 32129 ft 426 kts 196°
2026-05-08 21:30 39.27731 27.18352 32111 ft 426 kts 196°
2026-05-08 21:31 39.22844 27.17458 32126 ft 427 kts 196°
2026-05-08 21:31 39.16956 27.16384 32118 ft 427 kts 196°
2026-05-08 21:32 39.11069 27.15311 32122 ft 427 kts 196°
2026-05-08 21:32 39.05168 27.14237 32101 ft 427 kts 197°
2026-05-08 21:32 39.02261 27.13710 31893 ft 419 kts 197°
2026-05-08 21:33 38.99387 27.13181 31649 ft 413 kts 197°
2026-05-08 21:33 38.96559 27.12654 31418 ft 410 kts 197°
2026-05-08 21:33 38.93739 27.12130 31173 ft 408 kts 197°
2026-05-08 21:33 38.90930 27.11610 30937 ft 406 kts 197°
2026-05-08 21:34 38.88135 27.11090 30679 ft 405 kts 197°
2026-05-08 21:34 38.85347 27.10574 30456 ft 404 kts 197°
2026-05-08 21:34 38.82568 27.10060 30224 ft 403 kts 197°
2026-05-08 21:34 38.79798 27.09547 29979 ft 401 kts 196°
2026-05-08 21:35 38.77075 27.09044 29709 ft 399 kts 196°
2026-05-08 21:35 38.74323 27.08536 29440 ft 398 kts 196°
2026-05-08 21:35 38.71593 27.08032 29173 ft 396 kts 196°
2026-05-08 21:35 38.68859 27.07527 28880 ft 397 kts 196°
2026-05-08 21:36 38.66124 27.07024 28615 ft 397 kts 196°
2026-05-08 21:36 38.63386 27.06520 28355 ft 396 kts 196°
2026-05-08 21:36 38.60664 27.06019 28100 ft 395 kts 196°
2026-05-08 21:36 38.57950 27.05520 27854 ft 393 kts 196°
2026-05-08 21:37 38.55247 27.05024 27607 ft 392 kts 196°
2026-05-08 21:37 38.52546 27.04528 27355 ft 391 kts 195°
2026-05-08 21:37 38.49877 27.04038 27082 ft 390 kts 196°
2026-05-08 21:37 38.47187 27.03546 26842 ft 391 kts 196°
2026-05-08 21:38 38.44498 27.03053 26600 ft 390 kts 196°
2026-05-08 21:38 38.41814 27.02562 26356 ft 388 kts 196°
2026-05-08 21:38 38.39151 27.02075 26116 ft 387 kts 195°
2026-05-08 21:38 38.36486 27.01591 25880 ft 386 kts 195°
2026-05-08 21:39 38.33825 27.01133 25617 ft 387 kts 191°
2026-05-08 21:39 38.31107 27.01398 25364 ft 400 kts 173°
2026-05-08 21:39 38.28456 27.02631 25105 ft 410 kts 164°
2026-05-08 21:39 38.25826 27.04051 24863 ft 410 kts 164°
2026-05-08 21:40 38.23222 27.05473 24465 ft 408 kts 163°
2026-05-08 21:40 38.20600 27.06918 23899 ft 410 kts 163°
2026-05-08 21:40 38.17986 27.08365 23354 ft 409 kts 162°
2026-05-08 21:41 38.12790 27.11242 22411 ft 404 kts 162°
2026-05-08 21:41 38.10227 27.12660 21970 ft 400 kts 162°
2026-05-08 21:41 38.07709 27.14052 21551 ft 397 kts 162°
2026-05-08 21:41 38.05157 27.15462 21093 ft 394 kts 162°
2026-05-08 21:42 38.02655 27.16843 20704 ft 390 kts 162°
2026-05-08 21:42 38.00208 27.18193 20292 ft 387 kts 162°
2026-05-08 21:42 37.97745 27.19550 19895 ft 385 kts 162°
2026-05-08 21:42 37.95298 27.20897 19490 ft 382 kts 162°
2026-05-08 21:43 37.92862 27.22238 19094 ft 380 kts 162°
2026-05-08 21:43 37.90441 27.23570 18684 ft 378 kts 162°
2026-05-08 21:43 37.88032 27.24893 18260 ft 376 kts 162°
2026-05-08 21:43 37.85638 27.26209 17825 ft 374 kts 162°
2026-05-08 21:44 37.83264 27.27511 17410 ft 371 kts 162°
2026-05-08 21:44 37.80905 27.28805 17003 ft 368 kts 161°
2026-05-08 21:44 37.78569 27.30085 16625 ft 365 kts 161°
2026-05-08 21:44 37.76248 27.31356 16239 ft 362 kts 161°
2026-05-08 21:45 37.73947 27.32615 15861 ft 359 kts 161°
2026-05-08 21:45 37.71665 27.33863 15476 ft 357 kts 161°
2026-05-08 21:45 37.69391 27.35106 15095 ft 354 kts 161°
2026-05-08 21:45 37.67143 27.36334 14715 ft 351 kts 161°
2026-05-08 21:46 37.64907 27.37555 14346 ft 349 kts 161°
2026-05-08 21:46 37.62686 27.38783 13957 ft 347 kts 159°
2026-05-08 21:46 37.60490 27.40048 13501 ft 347 kts 159°
2026-05-08 21:46 37.58298 27.41307 13069 ft 346 kts 159°
2026-05-08 21:47 37.56110 27.42561 12623 ft 344 kts 159°
2026-05-08 21:47 37.53935 27.43806 12238 ft 342 kts 159°
2026-05-08 21:47 37.51806 27.45023 11888 ft 339 kts 159°
2026-05-08 21:47 37.49680 27.46300 11508 ft 338 kts 153°
2026-05-08 21:48 37.47651 27.47821 11111 ft 338 kts 152°
2026-05-08 21:48 37.45638 27.49317 10725 ft 336 kts 152°
2026-05-08 21:48 37.43624 27.50797 10340 ft 334 kts 152°
2026-05-08 21:48 37.41616 27.52262 10025 ft 331 kts 152°
2026-05-08 21:49 37.39644 27.53695 9627 ft 326 kts 152°
2026-05-08 21:49 37.37711 27.55096 9282 ft 323 kts 152°
2026-05-08 21:49 37.35755 27.56512 8951 ft 318 kts 152°
2026-05-08 21:49 37.33856 27.57886 8618 ft 315 kts 152°
2026-05-08 21:50 37.31987 27.59238 8306 ft 313 kts 152°
2026-05-08 21:50 37.30129 27.60594 7939 ft 304 kts 152°
2026-05-08 21:50 37.28328 27.61909 7623 ft 293 kts 152°
2026-05-08 21:50 37.26642 27.63255 7301 ft 284 kts 140°
2026-05-08 21:51 37.25497 27.65232 6888 ft 280 kts 112°
2026-05-08 21:51 37.24906 27.67530 6546 ft 273 kts 108°
2026-05-08 21:51 37.24321 27.69753 6224 ft 264 kts 108°
2026-05-08 21:51 37.23776 27.71932 5936 ft 262 kts 108°
2026-05-08 21:52 37.23231 27.74165 5672 ft 270 kts 108°
2026-05-08 21:52 37.22688 27.76434 5377 ft 273 kts 108°
2026-05-08 21:52 37.22147 27.78730 5094 ft 273 kts 108°
2026-05-08 21:52 37.21627 27.80990 4931 ft 266 kts 108°
2026-05-08 21:53 37.21134 27.83159 4847 ft 256 kts 108°
2026-05-08 21:53 37.20656 27.85278 4847 ft 243 kts 108°
2026-05-08 21:53 37.20217 27.87246 4839 ft 234 kts 108°
2026-05-08 21:53 37.19784 27.89195 4823 ft 232 kts 108°
2026-05-08 21:54 37.19352 27.91143 4797 ft 232 kts 108°
2026-05-08 21:54 37.18898 27.93089 4786 ft 233 kts 115°
2026-05-08 21:54 37.17986 27.94690 4787 ft 222 kts 149°
2026-05-08 21:54 37.16572 27.95257 4798 ft 214 kts 183°
2026-05-08 21:55 37.15148 27.94823 4813 ft 212 kts 211°
2026-05-08 21:55 37.14110 27.93549 4808 ft 212 kts 241°
2026-05-08 21:55 37.13791 27.91764 4790 ft 215 kts 274°
2026-05-08 21:56 37.15541 27.88780 4719 ft 228 kts 324°
2026-05-08 21:56 37.16890 27.87725 4400 ft 229 kts 325°
2026-05-08 21:56 37.18250 27.86666 4020 ft 230 kts 325°
2026-05-08 21:56 37.19596 27.85607 3651 ft 223 kts 324°
2026-05-08 21:57 37.20657 27.84347 3349 ft 197 kts 302°
2026-05-08 21:57 37.21237 27.82921 3070 ft 173 kts 287°
2026-05-08 21:57 37.21558 27.81545 2804 ft 156 kts 282°
2026-05-08 21:57 37.21840 27.80276 2558 ft 149 kts 284°
2026-05-08 21:58 37.22130 27.79029 2301 ft 148 kts 284°
2026-05-08 21:58 37.22419 27.77811 2062 ft 148 kts 284°
2026-05-08 21:58 37.22711 27.76575 1805 ft 147 kts 285°
2026-05-08 21:58 37.23005 27.75352 1547 ft 145 kts 286°
2026-05-08 21:59 37.23292 27.74145 1306 ft 145 kts 286°
2026-05-08 21:59 37.23584 27.72928 1052 ft 145 kts 287°
2026-05-08 21:59 37.23872 27.71726 810 ft 145 kts 287°
2026-05-08 21:59 37.24158 27.70510 563 ft 146 kts 287°
2026-05-08 22:00 37.24452 27.69283 279 ft 146 kts 289°
2026-05-08 22:00 37.24740 27.68088 56 ft 145 kts 286°
2026-05-08 22:00 37.24968 27.67098 27 ft 93 kts 289°
2026-05-08 22:00 37.25037 27.66798 22 ft 0 kts 289°
2026-05-08 22:01 37.25039 27.66779 23 ft 7 kts 269°
2026-05-08 22:01 37.25016 27.66696 22 ft 15 kts 216°
2026-05-08 22:01 37.24985 27.66696 21 ft 4 kts 135°
2026-05-08 22:02 37.24947 27.66767 21 ft 16 kts 131°
2026-05-08 22:02 37.24842 27.66890 21 ft 23 kts 143°
2026-05-08 22:02 37.24720 27.67011 23 ft 20 kts 141°
2026-05-08 22:02 37.24704 27.67031 24 ft 0 kts 134°
2026-05-08 22:03 37.24703 27.67031 24 ft 0 kts 142°
2026-05-08 22:03 37.24684 27.67034 25 ft 7 kts 181°
2026-05-08 22:03 37.24637 27.67081 24 ft 10 kts 111°
2026-05-08 22:03 37.24582 27.67111 24 ft 10 kts 190°
2026-05-08 22:04 37.24547 27.67100 27 ft 1 kts 196°
2026-05-08 22:04 37.24546 27.67099 27 ft 0 kts 197°